Time,TemperatureF,DewpointF,PressureIn,WindDirection,WindDirectionDegrees,WindSpeedMPH,WindSpeedGustMPH,Humidity,HourlyPrecipIn,Conditions,Clouds,dailyrainin,SoftwareType,DateUTC
2013-01-03 00:02:00,9.5,-3.8,30.09,North,359,3.0,6.0,54,0.00,,,0.00,Wunderground v.1.15,2013-01-03 05:02:00,
2013-01-03 00:04:00,9.5,-3.4,30.09,NNW,339,3.0,6.0,55,0.00,,,0.00,Wunderground v.1.15,2013-01-03 05:04:00,
2013-01-03 00:06:00,9.5,-3.8,30.09,NW,325,3.0,6.0,54,0.00,,,0.00,Wunderground v.1.15,2013-01-03 05:06:00,
2013-01-03 00:08:00,9.4,-3.5,30.09,ENE,58,3.0,6.0,55,0.00,,,0.00,Wunderground v.1.15,2013-01-03 05:08:00,
2013-01-03 00:14:00,9.2,-3.7,30.09,North,4,3.0,6.0,55,0.00,,,0.00,Wunderground v.1.15,2013-01-03 05:14:00,
2013-01-03 00:20:00,9.1,-4.2,30.09,NNE,33,3.0,3.0,54,0.00,,,0.00,Wunderground v.1.15,2013-01-03 05:20:00,
2013-01-03 00:26:00,9.0,-4.3,30.09,NNW,327,3.0,6.0,54,0.00,,,0.00,Wunderground v.1.15,2013-01-03 05:26:00,
2013-01-03 00:32:00,8.9,-4.4,30.09,North,9,3.0,6.0,54,0.00,,,0.00,Wunderground v.1.15,2013-01-03 05:32:00,
2013-01-03 00:37:00,8.7,-4.2,30.10,NNW,332,3.0,6.0,55,0.00,,,0.00,Wunderground v.1.15,2013-01-03 05:37:00,
2013-01-03 00:43:00,8.6,-4.3,30.10,NNE,31,3.0,6.0,55,0.00,,,0.00,Wunderground v.1.15,2013-01-03 05:43:00,
2013-01-03 00:49:00,8.5,-4.4,30.10,NNW,337,3.0,7.0,55,0.00,,,0.00,Wunderground v.1.15,2013-01-03 05:49:00,
2013-01-03 00:55:00,8.4,-4.5,30.09,WNW,299,4.0,8.0,55,0.00,,,0.00,Wunderground v.1.15,2013-01-03 05:55:00,
2013-01-03 01:00:00,8.3,-4.6,30.10,NE,41,4.0,6.0,55,0.00,,,0.00,Wunderground v.1.15,2013-01-03 06:00:00,
2013-01-03 01:06:00,8.3,-4.2,30.10,NNE,26,4.0,6.0,56,0.00,,,0.00,Wunderground v.1.15,2013-01-03 06:06:00,
2013-01-03 01:11:00,8.3,-4.2,30.10,NNW,346,4.0,8.0,56,0.00,,,0.00,Wunderground v.1.15,2013-01-03 06:11:00,
2013-01-03 01:17:00,8.2,-3.9,30.10,NNW,343,4.0,8.0,57,0.00,,,0.00,Wunderground v.1.15,2013-01-03 06:17:00,
2013-01-03 01:22:00,8.1,-4.4,30.11,NW,326,4.0,6.0,56,0.00,,,0.00,Wunderground v.1.15,2013-01-03 06:22:00,
2013-01-03 01:28:00,8.0,-4.5,30.11,NW,320,3.0,6.0,56,0.00,,,0.00,Wunderground v.1.15,2013-01-03 06:28:00,
2013-01-03 01:34:00,7.9,-4.6,30.11,NNW,332,3.0,10.0,56,0.00,,,0.00,Wunderground v.1.15,2013-01-03 06:34:00,
2013-01-03 01:40:00,7.8,-4.7,30.11,NNE,18,4.0,4.0,56,0.00,,,0.00,Wunderground v.1.15,2013-01-03 06:40:00,
2013-01-03 01:45:00,7.7,-4.8,30.12,NNE,28,3.0,6.0,56,0.00,,,0.00,Wunderground v.1.15,2013-01-03 06:45:00,
2013-01-03 01:51:00,7.6,-4.9,30.12,North,359,3.0,6.0,56,0.00,,,0.00,Wunderground v.1.15,2013-01-03 06:51:00,
2013-01-03 01:57:00,7.4,-5.0,30.12,North,349,2.0,6.0,56,0.00,,,0.00,Wunderground v.1.15,2013-01-03 06:57:00,
2013-01-03 02:03:00,7.3,-5.1,30.12,North,4,3.0,7.0,56,0.00,,,0.00,Wunderground v.1.15,2013-01-03 07:03:00,
2013-01-03 02:09:00,7.3,-5.5,30.12,NNW,336,4.0,7.0,55,0.00,,,0.00,Wunderground v.1.15,2013-01-03 07:09:00,
2013-01-03 02:15:00,7.3,-5.5,30.11,NNW,342,4.0,6.0,55,0.00,,,0.00,Wunderground v.1.15,2013-01-03 07:15:00,
2013-01-03 02:21:00,7.2,-5.2,30.11,ESE,114,3.0,6.0,56,0.00,,,0.00,Wunderground v.1.15,2013-01-03 07:21:00,
2013-01-03 02:26:00,7.2,-5.6,30.11,NNW,338,3.0,11.0,55,0.00,,,0.00,Wunderground v.1.15,2013-01-03 07:26:00,
2013-01-03 02:32:00,7.2,-5.6,30.12,NNE,25,4.0,6.0,55,0.00,,,0.00,Wunderground v.1.15,2013-01-03 07:32:00,
2013-01-03 02:38:00,7.1,-5.3,30.12,NNW,338,2.0,6.0,56,0.00,,,0.00,Wunderground v.1.15,2013-01-03 07:38:00,
2013-01-03 02:44:00,7.0,-5.4,30.11,NNW,342,1.0,8.0,56,0.00,,,0.00,Wunderground v.1.15,2013-01-03 07:44:00,
2013-01-03 02:49:00,7.1,-5.3,30.11,NNW,336,3.0,8.0,56,0.00,,,0.00,Wunderground v.1.15,2013-01-03 07:49:00,
2013-01-03 02:55:00,7.0,-5.4,30.11,NNW,337,3.0,6.0,56,0.00,,,0.00,Wunderground v.1.15,2013-01-03 07:55:00,
2013-01-03 03:01:00,6.9,-5.5,30.11,NNW,330,3.0,6.0,56,0.00,,,0.00,Wunderground v.1.15,2013-01-03 08:01:00,
2013-01-03 03:07:00,7.0,-5.4,30.11,NNW,338,4.0,6.0,56,0.00,,,0.00,Wunderground v.1.15,2013-01-03 08:07:00,
2013-01-03 03:13:00,6.9,-5.5,30.11,NE,41,3.0,6.0,56,0.00,,,0.00,Wunderground v.1.15,2013-01-03 08:13:00,
2013-01-03 03:18:00,6.9,-5.5,30.11,NNE,16,4.0,8.0,56,0.00,,,0.00,Wunderground v.1.15,2013-01-03 08:18:00,
2013-01-03 03:24:00,6.9,-5.5,30.11,NNW,337,4.0,10.0,56,0.00,,,0.00,Wunderground v.1.15,2013-01-03 08:24:00,
2013-01-03 03:30:00,6.9,-5.5,30.11,NNW,337,4.0,4.0,56,0.00,,,0.00,Wunderground v.1.15,2013-01-03 08:30:00,
2013-01-03 03:35:00,6.8,-5.2,30.10,NNW,330,3.0,7.0,57,0.00,,,0.00,Wunderground v.1.15,2013-01-03 08:35:00,
2013-01-03 03:41:00,6.7,-5.3,30.11,NW,324,3.0,6.0,57,0.00,,,0.00,Wunderground v.1.15,2013-01-03 08:41:00,
2013-01-03 03:47:00,6.7,-5.3,30.11,NNW,348,2.0,6.0,57,0.00,,,0.00,Wunderground v.1.15,2013-01-03 08:47:00,
2013-01-03 03:53:00,6.7,-5.3,30.11,ENE,69,3.0,6.0,57,0.00,,,0.00,Wunderground v.1.15,2013-01-03 08:53:00,
2013-01-03 03:58:00,6.5,-5.2,30.10,North,9,2.0,6.0,58,0.00,,,0.00,Wunderground v.1.15,2013-01-03 08:58:00,
2013-01-03 04:04:00,6.4,-5.3,30.10,North,359,2.0,6.0,58,0.00,,,0.00,Wunderground v.1.15,2013-01-03 09:04:00,
2013-01-03 04:10:00,6.4,-5.3,30.10,NW,323,3.0,3.0,58,0.00,,,0.00,Wunderground v.1.15,2013-01-03 09:10:00,
2013-01-03 04:15:00,6.4,-5.3,30.10,ESE,106,3.0,6.0,58,0.00,,,0.00,Wunderground v.1.15,2013-01-03 09:15:00,
2013-01-03 04:21:00,6.3,-5.3,30.10,NNW,345,2.0,6.0,58,0.00,,,0.00,Wunderground v.1.15,2013-01-03 09:21:00,
2013-01-03 04:27:00,6.2,-5.1,30.10,NNE,27,2.0,6.0,59,0.00,,,0.00,Wunderground v.1.15,2013-01-03 09:27:00,
2013-01-03 04:33:00,6.1,-5.5,30.10,North,4,3.0,6.0,58,0.00,,,0.00,Wunderground v.1.15,2013-01-03 09:33:00,
2013-01-03 04:38:00,6.1,-5.2,30.10,North,4,3.0,6.0,59,0.00,,,0.00,Wunderground v.1.15,2013-01-03 09:38:00,
2013-01-03 04:43:00,6.0,-5.3,30.10,NNW,333,3.0,6.0,59,0.00,,,0.00,Wunderground v.1.15,2013-01-03 09:43:00,
2013-01-03 04:49:00,6.0,-5.3,30.10,NNW,340,3.0,6.0,59,0.00,,,0.00,Wunderground v.1.15,2013-01-03 09:49:00,
2013-01-03 04:55:00,5.9,-5.4,30.10,North,359,2.0,6.0,59,0.00,,,0.00,Wunderground v.1.15,2013-01-03 09:55:00,
2013-01-03 05:01:00,5.9,-5.4,30.10,NW,320,2.0,6.0,59,0.00,,,0.00,Wunderground v.1.15,2013-01-03 10:01:00,
2013-01-03 05:06:00,5.8,-5.5,30.10,NNW,332,2.0,6.0,59,0.00,,,0.00,Wunderground v.1.15,2013-01-03 10:06:00,
2013-01-03 05:12:00,5.8,-5.5,30.10,NE,36,2.0,6.0,59,0.00,,,0.00,Wunderground v.1.15,2013-01-03 10:12:00,
2013-01-03 05:18:00,5.7,-5.2,30.10,North,359,2.0,6.0,60,0.00,,,0.00,Wunderground v.1.15,2013-01-03 10:18:00,
2013-01-03 05:24:00,5.6,-5.3,30.09,NNE,21,2.0,6.0,60,0.00,,,0.00,Wunderground v.1.15,2013-01-03 10:24:00,
2013-01-03 05:30:00,5.6,-5.3,30.09,NNW,332,2.0,2.0,60,0.00,,,0.00,Wunderground v.1.15,2013-01-03 10:30:00,
2013-01-03 05:36:00,5.6,-5.3,30.10,NW,316,2.0,6.0,60,0.00,,,0.00,Wunderground v.1.15,2013-01-03 10:36:00,
2013-01-03 05:42:00,5.5,-5.4,30.10,ENE,62,3.0,6.0,60,0.00,,,0.00,Wunderground v.1.15,2013-01-03 10:42:00,
2013-01-03 05:47:00,5.5,-5.4,30.10,NNW,332,2.0,6.0,60,0.00,,,0.00,Wunderground v.1.15,2013-01-03 10:47:00,
2013-01-03 05:53:00,5.5,-5.4,30.10,North,354,2.0,6.0,60,0.00,,,0.00,Wunderground v.1.15,2013-01-03 10:53:00,
2013-01-03 05:59:00,5.4,-5.2,30.10,NNW,345,1.0,6.0,61,0.00,,,0.00,Wunderground v.1.15,2013-01-03 10:59:00,
2013-01-03 06:05:00,5.4,-5.5,30.10,NNW,337,2.0,6.0,60,0.00,,,0.00,Wunderground v.1.15,2013-01-03 11:05:00,
2013-01-03 06:10:00,5.3,-5.6,30.10,NNW,338,1.0,1.0,60,0.00,,,0.00,Wunderground v.1.15,2013-01-03 11:10:00,
2013-01-03 06:16:00,5.3,-5.2,30.10,NW,319,2.0,6.0,61,0.00,,,0.00,Wunderground v.1.15,2013-01-03 11:16:00,
2013-01-03 06:22:00,5.3,-5.2,30.10,North,359,2.0,6.0,61,0.00,,,0.00,Wunderground v.1.15,2013-01-03 11:22:00,
2013-01-03 06:27:00,5.2,-5.3,30.10,NNW,331,1.0,6.0,61,0.00,,,0.00,Wunderground v.1.15,2013-01-03 11:27:00,
2013-01-03 06:32:00,5.3,-5.2,30.10,NNE,29,1.0,6.0,61,0.00,,,0.00,Wunderground v.1.15,2013-01-03 11:32:00,
2013-01-03 06:38:00,5.2,-5.3,30.10,NNE,16,1.0,6.0,61,0.00,,,0.00,Wunderground v.1.15,2013-01-03 11:38:00,
2013-01-03 06:44:00,5.1,-5.1,30.10,NNW,331,0.0,6.0,62,0.00,,,0.00,Wunderground v.1.15,2013-01-03 11:44:00,
2013-01-03 06:50:00,5.1,-5.1,30.10,NE,52,0.0,6.0,62,0.00,,,0.00,Wunderground v.1.15,2013-01-03 11:50:00,
2013-01-03 06:55:00,5.0,-5.2,30.10,NNW,334,0.0,6.0,62,0.00,,,0.00,Wunderground v.1.15,2013-01-03 11:55:00,
2013-01-03 07:01:00,5.0,-5.2,30.10,North,4,1.0,6.0,62,0.00,,,0.00,Wunderground v.1.15,2013-01-03 12:01:00,
2013-01-03 07:07:00,5.0,-5.2,30.10,North,4,1.0,6.0,62,0.00,,,0.00,Wunderground v.1.15,2013-01-03 12:07:00,
2013-01-03 07:13:00,5.0,-5.2,30.11,NNW,327,1.0,6.0,62,0.00,,,0.00,Wunderground v.1.15,2013-01-03 12:13:00,
2013-01-03 07:18:00,5.0,-4.9,30.11,NNW,327,1.0,6.0,63,0.00,,,0.00,Wunderground v.1.15,2013-01-03 12:18:00,
2013-01-03 07:24:00,5.0,-4.9,30.11,NNW,346,1.0,6.0,63,0.00,,,0.00,Wunderground v.1.15,2013-01-03 12:24:00,
2013-01-03 07:30:00,5.0,-4.9,30.11,NNW,346,1.0,1.0,63,0.00,,,0.00,Wunderground v.1.15,2013-01-03 12:30:00,
2013-01-03 07:36:00,5.1,-4.8,30.11,NNW,347,1.0,6.0,63,0.00,,,0.00,Wunderground v.1.15,2013-01-03 12:36:00,
2013-01-03 07:41:00,5.3,-4.6,30.11,NNW,346,0.0,6.0,63,0.00,,,0.00,Wunderground v.1.15,2013-01-03 12:41:00,
2013-01-03 07:47:00,5.8,-4.4,30.11,North,354,1.0,6.0,62,0.00,,,0.00,Wunderground v.1.15,2013-01-03 12:47:00,
2013-01-03 07:53:00,6.2,-4.1,30.11,NW,324,2.0,6.0,62,0.00,,,0.00,Wunderground v.1.15,2013-01-03 12:53:00,
2013-01-03 07:59:00,6.7,-3.9,30.11,NNW,328,1.0,7.0,61,0.00,,,0.00,Wunderground v.1.15,2013-01-03 12:59:00,
2013-01-03 08:04:00,7.0,-4.0,30.11,NNW,328,2.0,5.0,60,0.00,,,0.00,Wunderground v.1.15,2013-01-03 13:04:00,
2013-01-03 08:10:00,7.3,-4.0,30.11,NNW,328,2.0,2.0,59,0.00,,,0.00,Wunderground v.1.15,2013-01-03 13:10:00,
2013-01-03 08:16:00,7.8,-3.6,30.11,North,4,1.0,2.0,59,0.00,,,0.00,Wunderground v.1.15,2013-01-03 13:16:00,
2013-01-03 08:22:00,8.1,-3.6,30.11,South,181,1.0,3.0,58,0.00,,,0.00,Wunderground v.1.15,2013-01-03 13:22:00,
2013-01-03 08:27:00,8.3,-3.8,30.11,NE,48,3.0,7.0,57,0.00,,,0.00,Wunderground v.1.15,2013-01-03 13:27:00,
2013-01-03 08:33:00,8.5,-3.6,30.11,NNW,329,2.0,5.0,57,0.00,,,0.00,Wunderground v.1.15,2013-01-03 13:33:00,
2013-01-03 08:39:00,8.8,-3.4,30.11,NE,45,3.0,5.0,57,0.00,,,0.00,Wunderground v.1.15,2013-01-03 13:39:00,
2013-01-03 08:45:00,9.3,-2.5,30.11,ENE,73,2.0,5.0,58,0.00,,,0.00,Wunderground v.1.15,2013-01-03 13:45:00,
2013-01-03 08:51:00,9.5,-2.7,30.10,East,85,3.0,5.0,57,0.00,,,0.00,Wunderground v.1.15,2013-01-03 13:51:00,
2013-01-03 08:57:00,9.8,-2.8,30.10,NNE,27,3.0,5.0,56,0.00,,,0.00,Wunderground v.1.15,2013-01-03 13:57:00,
2013-01-03 09:03:00,10.1,-2.5,30.10,NNW,331,3.0,7.0,56,0.00,,,0.00,Wunderground v.1.15,2013-01-03 14:03:00,
2013-01-03 09:08:00,10.6,-2.0,30.10,NNW,328,2.0,7.0,56,0.00,,,0.00,Wunderground v.1.15,2013-01-03 14:08:00,
2013-01-03 09:14:00,10.9,-2.5,30.10,NNW,344,2.0,5.0,54,0.00,,,0.00,Wunderground v.1.15,2013-01-03 14:14:00,
2013-01-03 09:20:00,11.2,-2.2,30.10,East,86,3.0,3.0,54,0.00,,,0.00,Wunderground v.1.15,2013-01-03 14:20:00,
2013-01-03 09:26:00,11.9,-2.0,30.10,East,86,2.0,5.0,53,0.00,,,0.00,Wunderground v.1.15,2013-01-03 14:26:00,
2013-01-03 09:31:00,12.1,-2.2,30.10,NW,305,3.0,5.0,52,0.00,,,0.00,Wunderground v.1.15,2013-01-03 14:31:00,
2013-01-03 09:37:00,12.5,-1.8,30.11,NE,36,4.0,7.0,52,0.00,,,0.00,Wunderground v.1.15,2013-01-03 14:37:00,
2013-01-03 09:43:00,12.8,-1.9,30.11,NNW,337,3.0,6.0,51,0.00,,,0.00,Wunderground v.1.15,2013-01-03 14:43:00,
2013-01-03 09:49:00,13.2,-1.6,30.11,NNW,341,3.0,6.0,51,0.00,,,0.00,Wunderground v.1.15,2013-01-03 14:49:00,
2013-01-03 09:55:00,13.7,-1.1,30.11,North,9,2.0,5.0,51,0.00,,,0.00,Wunderground v.1.15,2013-01-03 14:55:00,
2013-01-03 10:01:00,14.0,-1.3,30.11,NNE,20,3.0,5.0,50,0.00,,,0.00,Wunderground v.1.15,2013-01-03 15:01:00,
2013-01-03 10:07:00,14.4,-0.9,30.11,North,359,2.0,5.0,50,0.00,,,0.00,Wunderground v.1.15,2013-01-03 15:07:00,
2013-01-03 10:12:00,14.4,-0.9,30.10,NNW,332,3.0,8.0,50,0.00,,,0.00,Wunderground v.1.15,2013-01-03 15:12:00,
2013-01-03 10:18:00,14.4,-0.5,30.10,NNW,343,5.0,10.0,51,0.00,,,0.00,Wunderground v.1.15,2013-01-03 15:18:00,
2013-01-03 10:24:00,14.9,-0.4,30.10,NNE,31,4.0,5.0,50,0.00,,,0.00,Wunderground v.1.15,2013-01-03 15:24:00,
2013-01-03 10:30:00,15.2,-1.0,30.09,NW,314,3.0,3.0,48,0.00,,,0.00,Wunderground v.1.15,2013-01-03 15:30:00,
2013-01-03 10:35:00,15.4,-0.8,30.09,NNE,12,3.0,8.0,48,0.00,,,0.00,Wunderground v.1.15,2013-01-03 15:35:00,
2013-01-03 10:41:00,15.8,0.0,30.09,North,359,3.0,5.0,49,0.00,,,0.00,Wunderground v.1.15,2013-01-03 15:41:00,
2013-01-03 10:47:00,16.0,-0.3,30.08,NNE,21,3.0,10.0,48,0.00,,,0.00,Wunderground v.1.15,2013-01-03 15:47:00,
2013-01-03 10:53:00,16.1,-0.6,30.08,WNW,303,4.0,5.0,47,0.00,,,0.00,Wunderground v.1.15,2013-01-03 15:53:00,
2013-01-03 10:58:00,16.4,0.1,30.08,NW,324,3.0,5.0,48,0.00,,,0.00,Wunderground v.1.15,2013-01-03 15:58:00,
2013-01-03 11:04:00,16.9,1.0,30.08,NNW,341,3.0,5.0,49,0.00,,,0.00,Wunderground v.1.15,2013-01-03 16:04:00,
2013-01-03 11:10:00,17.2,1.3,30.08,NNE,31,4.0,4.0,49,0.00,,,0.00,Wunderground v.1.15,2013-01-03 16:10:00,
2013-01-03 11:16:00,17.7,0.9,30.08,North,354,3.0,5.0,47,0.00,,,0.00,Wunderground v.1.15,2013-01-03 16:16:00,
2013-01-03 11:21:00,18.2,1.3,30.07,North,350,2.0,4.0,47,0.00,,,0.00,Wunderground v.1.15,2013-01-03 16:21:00,
2013-01-03 11:27:00,18.5,1.1,30.07,WNW,293,2.0,7.0,46,0.00,,,0.00,Wunderground v.1.15,2013-01-03 16:27:00,
2013-01-03 11:33:00,18.7,0.8,30.07,NNW,342,3.0,5.0,45,0.00,,,0.00,Wunderground v.1.15,2013-01-03 16:33:00,
2013-01-03 11:39:00,19.1,1.7,30.07,NNE,25,2.0,5.0,46,0.00,,,0.00,Wunderground v.1.15,2013-01-03 16:39:00,
2013-01-03 11:44:00,19.2,1.8,30.07,NNE,20,3.0,7.0,46,0.00,,,0.00,Wunderground v.1.15,2013-01-03 16:44:00,
2013-01-03 11:50:00,19.6,2.1,30.07,ENE,70,3.0,5.0,46,0.00,,,0.00,Wunderground v.1.15,2013-01-03 16:50:00,
2013-01-03 11:56:00,19.7,2.2,30.07,NNW,348,3.0,6.0,46,0.00,,,0.00,Wunderground v.1.15,2013-01-03 16:56:00,
2013-01-03 12:02:00,19.7,1.8,30.06,North,349,4.0,7.0,45,0.00,,,0.00,Wunderground v.1.15,2013-01-03 17:02:00,
2013-01-03 12:07:00,19.8,1.8,30.06,NNW,336,4.0,7.0,45,0.00,,,0.00,Wunderground v.1.15,2013-01-03 17:07:00,
2013-01-03 12:13:00,19.8,2.8,30.06,NW,316,4.0,6.0,47,0.00,,,0.00,Wunderground v.1.15,2013-01-03 17:13:00,
2013-01-03 12:19:00,20.0,2.0,30.06,WNW,283,4.0,7.0,45,0.00,,,0.00,Wunderground v.1.15,2013-01-03 17:19:00,
2013-01-03 12:25:00,19.9,2.4,30.06,North,350,5.0,8.0,46,0.00,,,0.00,Wunderground v.1.15,2013-01-03 17:25:00,
2013-01-03 12:30:00,20.1,1.6,30.05,ENE,75,4.0,4.0,44,0.00,,,0.00,Wunderground v.1.15,2013-01-03 17:30:00,
2013-01-03 12:36:00,20.2,1.7,30.05,NW,308,4.0,6.0,44,0.00,,,0.00,Wunderground v.1.15,2013-01-03 17:36:00,
2013-01-03 12:42:00,20.8,1.8,30.05,NW,322,4.0,7.0,43,0.00,,,0.00,Wunderground v.1.15,2013-01-03 17:42:00,
2013-01-03 12:48:00,21.0,1.5,30.04,NNW,335,4.0,8.0,42,0.00,,,0.00,Wunderground v.1.15,2013-01-03 17:48:00,
2013-01-03 12:54:00,21.5,2.4,30.04,ENE,75,4.0,7.0,43,0.00,,,0.00,Wunderground v.1.15,2013-01-03 17:54:00,
2013-01-03 13:00:00,22.0,2.9,30.04,NNW,328,3.0,5.0,43,0.00,,,0.00,Wunderground v.1.15,2013-01-03 18:00:00,
2013-01-03 13:06:00,21.8,2.2,30.03,NE,43,3.0,8.0,42,0.00,,,0.00,Wunderground v.1.15,2013-01-03 18:06:00,
2013-01-03 13:11:00,21.7,1.6,30.03,NNE,20,4.0,5.0,41,0.00,,,0.00,Wunderground v.1.15,2013-01-03 18:11:00,
2013-01-03 13:17:00,22.3,2.6,30.02,NW,318,3.0,7.0,42,0.00,,,0.00,Wunderground v.1.15,2013-01-03 18:17:00,
2013-01-03 13:23:00,22.4,1.7,30.02,ENE,76,3.0,5.0,40,0.00,,,0.00,Wunderground v.1.15,2013-01-03 18:23:00,
2013-01-03 13:29:00,22.6,0.2,30.02,NNW,328,3.0,5.0,37,0.00,,,0.00,Wunderground v.1.15,2013-01-03 18:29:00,
2013-01-03 13:34:00,22.9,1.0,30.02,WNW,299,4.0,5.0,38,0.00,,,0.00,Wunderground v.1.15,2013-01-03 18:34:00,
2013-01-03 13:40:00,23.3,0.8,30.02,NNW,339,4.0,4.0,37,0.00,,,0.00,Wunderground v.1.15,2013-01-03 18:40:00,
2013-01-03 13:45:00,23.7,0.6,30.02,NNE,21,4.0,5.0,36,0.00,,,0.00,Wunderground v.1.15,2013-01-03 18:45:00,
2013-01-03 13:51:00,24.2,1.6,30.01,NNE,21,2.0,5.0,37,0.00,,,0.00,Wunderground v.1.15,2013-01-03 18:51:00,
2013-01-03 13:56:00,24.6,0.8,30.02,WNW,293,3.0,5.0,35,0.00,,,0.00,Wunderground v.1.15,2013-01-03 18:56:00,
2013-01-03 14:02:00,24.3,1.1,30.02,NNW,339,4.0,8.0,36,0.00,,,0.00,Wunderground v.1.15,2013-01-03 19:02:00,
2013-01-03 14:08:00,24.1,1.5,30.01,NW,304,4.0,8.0,37,0.00,,,0.00,Wunderground v.1.15,2013-01-03 19:08:00,
2013-01-03 14:14:00,24.5,1.3,30.01,ENE,73,3.0,7.0,36,0.00,,,0.00,Wunderground v.1.15,2013-01-03 19:14:00,
2013-01-03 14:52:00,25.8,1.2,30.02,North,354,3.0,5.0,34,0.00,,,0.00,Wunderground v.1.15,2013-01-03 19:52:00,
2013-01-03 14:58:00,25.9,-0.6,30.02,NNE,27,3.0,8.0,31,0.00,,,0.00,Wunderground v.1.15,2013-01-03 19:58:00,
2013-01-03 15:03:00,25.8,-0.7,30.01,WNW,293,4.0,7.0,31,0.00,,,0.00,Wunderground v.1.15,2013-01-03 20:03:00,
2013-01-03 15:09:00,25.8,-2.1,30.01,WNW,289,4.0,7.0,29,0.00,,,0.00,Wunderground v.1.15,2013-01-03 20:09:00,
2013-01-03 15:15:00,25.9,-0.6,30.01,NNW,335,3.0,5.0,31,0.00,,,0.00,Wunderground v.1.15,2013-01-03 20:15:00,
2013-01-03 15:20:00,26.1,-1.2,30.01,WNW,289,2.0,2.0,30,0.00,,,0.00,Wunderground v.1.15,2013-01-03 20:20:00,
2013-01-03 15:26:00,26.0,-1.3,30.01,North,8,2.0,5.0,30,0.00,,,0.00,Wunderground v.1.15,2013-01-03 20:26:00,
2013-01-03 15:32:00,25.8,-1.4,30.01,NW,324,2.0,5.0,30,0.00,,,0.00,Wunderground v.1.15,2013-01-03 20:32:00,
2013-01-03 15:38:00,25.3,-2.6,30.01,NNE,24,2.0,5.0,29,0.00,,,0.00,Wunderground v.1.15,2013-01-03 20:38:00,
2013-01-03 15:44:00,25.0,-2.1,30.01,NNW,345,2.0,6.0,30,0.00,,,0.00,Wunderground v.1.15,2013-01-03 20:44:00,
2013-01-03 15:49:00,24.8,-3.0,30.01,NNE,14,2.0,6.0,29,0.00,,,0.00,Wunderground v.1.15,2013-01-03 20:49:00,
2013-01-03 15:55:00,24.7,-1.7,30.01,ENE,72,2.0,5.0,31,0.00,,,0.00,Wunderground v.1.15,2013-01-03 20:55:00,
2013-01-03 16:01:00,24.5,-1.9,30.02,NNW,339,1.0,4.0,31,0.00,,,0.00,Wunderground v.1.15,2013-01-03 21:01:00,
2013-01-03 16:07:00,24.1,-1.6,30.02,North,4,2.0,6.0,32,0.00,,,0.00,Wunderground v.1.15,2013-01-03 21:07:00,
2013-01-03 16:13:00,23.7,-1.9,30.02,NNW,341,1.0,5.0,32,0.00,,,0.00,Wunderground v.1.15,2013-01-03 21:13:00,
2013-01-03 16:19:00,23.4,-0.9,30.02,NNW,333,1.0,5.0,34,0.00,,,0.00,Wunderground v.1.15,2013-01-03 21:19:00,
2013-01-03 16:25:00,23.1,-1.2,30.02,NNW,336,1.0,5.0,34,0.00,,,0.00,Wunderground v.1.15,2013-01-03 21:25:00,
2013-01-03 16:30:00,22.9,-0.7,30.02,NNW,336,1.0,1.0,35,0.00,,,0.00,Wunderground v.1.15,2013-01-03 21:30:00,
2013-01-03 16:36:00,22.6,-1.0,30.02,NNW,336,0.0,5.0,35,0.00,,,0.00,Wunderground v.1.15,2013-01-03 21:36:00,
2013-01-03 16:42:00,22.4,-1.2,30.02,NNW,336,0.0,5.0,35,0.00,,,0.00,Wunderground v.1.15,2013-01-03 21:42:00,
2013-01-03 16:48:00,22.1,1.4,30.02,NNW,337,0.0,5.0,40,0.00,,,0.00,Wunderground v.1.15,2013-01-03 21:48:00,
2013-01-03 16:54:00,21.7,-0.6,30.01,NNW,336,0.0,5.0,37,0.00,,,0.00,Wunderground v.1.15,2013-01-03 21:54:00,
2013-01-03 17:00:00,21.4,-1.5,30.02,NNW,336,0.0,5.0,36,0.00,,,0.00,Wunderground v.1.15,2013-01-03 22:00:00,
2013-01-03 17:06:00,21.0,-0.1,30.02,NNW,337,0.0,5.0,39,0.00,,,0.00,Wunderground v.1.15,2013-01-03 22:06:00,
2013-01-03 17:12:00,20.7,0.7,30.02,NNW,336,0.0,5.0,41,0.00,,,0.00,Wunderground v.1.15,2013-01-03 22:12:00,
2013-01-03 17:18:00,20.4,-0.7,30.02,NNW,336,0.0,5.0,39,0.00,,,0.00,Wunderground v.1.15,2013-01-03 22:18:00,
2013-01-03 17:23:00,20.1,1.1,30.03,NNW,336,0.0,5.0,43,0.00,,,0.00,Wunderground v.1.15,2013-01-03 22:23:00,
2013-01-03 17:29:00,19.7,4.0,30.03,NNW,336,0.0,5.0,50,0.00,,,0.00,Wunderground v.1.15,2013-01-03 22:29:00,
2013-01-03 17:35:00,19.3,4.5,30.03,NNW,336,0.0,5.0,52,0.00,,,0.00,Wunderground v.1.15,2013-01-03 22:35:00,
2013-01-03 17:41:00,18.9,1.5,30.03,NNW,336,0.0,5.0,46,0.00,,,0.00,Wunderground v.1.15,2013-01-03 22:41:00,
2013-01-03 17:46:00,18.6,1.7,30.02,NNW,336,0.0,5.0,47,0.00,,,0.00,Wunderground v.1.15,2013-01-03 22:46:00,
2013-01-03 17:52:00,18.4,3.3,30.02,NNW,336,0.0,5.0,51,0.00,,,0.00,Wunderground v.1.15,2013-01-03 22:52:00,
2013-01-03 17:58:00,18.0,1.6,30.02,NNW,336,0.0,5.0,48,0.00,,,0.00,Wunderground v.1.15,2013-01-03 22:58:00,
2013-01-03 18:04:00,17.7,1.7,30.02,NNW,336,0.0,5.0,49,0.00,,,0.00,Wunderground v.1.15,2013-01-03 23:04:00,
2013-01-03 18:10:00,17.5,2.4,30.03,NNW,336,0.0,5.0,51,0.00,,,0.00,Wunderground v.1.15,2013-01-03 23:10:00,
2013-01-03 18:16:00,17.3,2.2,30.03,NNW,336,0.0,5.0,51,0.00,,,0.00,Wunderground v.1.15,2013-01-03 23:16:00,
2013-01-03 18:22:00,17.1,2.1,30.03,NNW,336,0.0,5.0,51,0.00,,,0.00,Wunderground v.1.15,2013-01-03 23:22:00,
2013-01-03 18:27:00,16.9,2.3,30.03,NNW,336,0.0,5.0,52,0.00,,,0.00,Wunderground v.1.15,2013-01-03 23:27:00,
2013-01-03 18:33:00,16.7,3.7,30.03,NNW,336,0.0,5.0,56,0.00,,,0.00,Wunderground v.1.15,2013-01-03 23:33:00,
2013-01-03 18:39:00,16.6,4.7,30.03,NNW,336,0.0,5.0,59,0.00,,,0.00,Wunderground v.1.15,2013-01-03 23:39:00,
2013-01-03 18:45:00,16.6,5.5,30.03,NNW,336,0.0,5.0,61,0.00,,,0.00,Wunderground v.1.15,2013-01-03 23:45:00,
2013-01-03 18:50:00,16.3,6.2,30.03,NW,324,0.0,5.0,64,0.00,,,0.00,Wunderground v.1.15,2013-01-03 23:50:00,
2013-01-03 18:56:00,16.1,4.3,30.03,NW,324,0.0,5.0,59,0.00,,,0.00,Wunderground v.1.15,2013-01-03 23:56:00,
2013-01-03 19:02:00,16.0,6.3,30.03,NW,324,0.0,5.0,65,0.00,,,0.00,Wunderground v.1.15,2013-01-04 00:02:00,
2013-01-03 19:08:00,15.9,3.7,30.03,NW,324,0.0,5.0,58,0.00,,,0.00,Wunderground v.1.15,2013-01-04 00:08:00,
2013-01-03 19:14:00,16.0,5.6,30.04,NW,324,0.0,5.0,63,0.00,,,0.00,Wunderground v.1.15,2013-01-04 00:14:00,
2013-01-03 19:20:00,15.8,5.4,30.04,NW,324,0.0,5.0,63,0.00,,,0.00,Wunderground v.1.15,2013-01-04 00:20:00,
2013-01-03 19:26:00,15.8,7.1,30.03,NW,324,0.0,5.0,68,0.00,,,0.00,Wunderground v.1.15,2013-01-04 00:26:00,
2013-01-03 19:31:00,15.9,8.2,30.03,NW,324,0.0,5.0,71,0.00,,,0.00,Wunderground v.1.15,2013-01-04 00:31:00,
2013-01-03 19:37:00,16.1,8.3,30.03,NW,324,0.0,5.0,71,0.00,,,0.00,Wunderground v.1.15,2013-01-04 00:37:00,
2013-01-03 19:43:00,16.1,7.4,30.03,NW,324,0.0,5.0,68,0.00,,,0.00,Wunderground v.1.15,2013-01-04 00:43:00,
2013-01-03 19:49:00,16.3,6.9,30.03,NW,324,0.0,5.0,66,0.00,,,0.00,Wunderground v.1.15,2013-01-04 00:49:00,
2013-01-03 19:54:00,16.6,8.5,30.03,NW,324,0.0,5.0,70,0.00,,,0.00,Wunderground v.1.15,2013-01-04 00:54:00,
2013-01-03 20:00:00,16.8,9.0,30.03,NW,324,0.0,5.0,71,0.00,,,0.00,Wunderground v.1.15,2013-01-04 01:00:00,
2013-01-03 20:06:00,17.0,9.2,30.03,NW,324,0.0,5.0,71,0.00,,,0.00,Wunderground v.1.15,2013-01-04 01:06:00,
2013-01-03 20:12:00,17.1,9.3,30.03,NW,324,0.0,5.0,71,0.00,,,0.00,Wunderground v.1.15,2013-01-04 01:12:00,
2013-01-03 20:18:00,17.2,8.4,30.03,NW,324,0.0,5.0,68,0.00,,,0.00,Wunderground v.1.15,2013-01-04 01:18:00,
2013-01-03 20:24:00,17.3,9.5,30.03,NW,324,0.0,5.0,71,0.00,,,0.00,Wunderground v.1.15,2013-01-04 01:24:00,
2013-01-03 20:30:00,17.5,10.3,30.03,NW,324,0.0,5.0,73,0.00,,,0.00,Wunderground v.1.15,2013-01-04 01:30:00,
2013-01-03 20:35:00,17.5,8.1,30.03,NW,324,0.0,5.0,66,0.00,,,0.00,Wunderground v.1.15,2013-01-04 01:35:00,
2013-01-03 20:41:00,17.7,7.2,30.03,NW,324,0.0,5.0,63,0.00,,,0.00,Wunderground v.1.15,2013-01-04 01:41:00,
2013-01-03 20:47:00,17.9,7.1,30.03,NW,324,0.0,5.0,62,0.00,,,0.00,Wunderground v.1.15,2013-01-04 01:47:00,
2013-01-03 20:53:00,18.1,6.5,30.03,NW,324,0.0,5.0,60,0.00,,,0.00,Wunderground v.1.15,2013-01-04 01:53:00,
2013-01-03 20:58:00,18.4,6.1,30.03,NW,324,0.0,5.0,58,0.00,,,0.00,Wunderground v.1.15,2013-01-04 01:58:00,
2013-01-03 21:04:00,18.4,9.3,30.03,NW,324,0.0,5.0,67,0.00,,,0.00,Wunderground v.1.15,2013-01-04 02:04:00,
2013-01-03 21:10:00,18.1,9.6,30.03,NW,324,0.0,5.0,69,0.00,,,0.00,Wunderground v.1.15,2013-01-04 02:10:00,
2013-01-03 21:16:00,17.6,9.5,30.03,NW,324,0.0,5.0,70,0.00,,,0.00,Wunderground v.1.15,2013-01-04 02:16:00,
2013-01-03 21:22:00,17.3,7.2,30.03,NW,324,0.0,5.0,64,0.00,,,0.00,Wunderground v.1.15,2013-01-04 02:22:00,
2013-01-03 21:28:00,17.2,8.8,30.03,NW,324,0.0,5.0,69,0.00,,,0.00,Wunderground v.1.15,2013-01-04 02:28:00,
2013-01-03 21:34:00,17.0,8.9,30.03,NW,324,0.0,5.0,70,0.00,,,0.00,Wunderground v.1.15,2013-01-04 02:34:00,
2013-01-03 21:39:00,16.8,9.0,30.03,NW,324,0.0,5.0,71,0.00,,,0.00,Wunderground v.1.15,2013-01-04 02:39:00,
2013-01-03 21:45:00,16.8,9.9,30.03,NW,324,0.0,5.0,74,0.00,,,0.00,Wunderground v.1.15,2013-01-04 02:45:00,
2013-01-03 21:51:00,16.8,9.0,30.03,NW,324,0.0,5.0,71,0.00,,,0.00,Wunderground v.1.15,2013-01-04 02:51:00,
2013-01-03 21:57:00,17.3,10.1,30.02,NW,324,0.0,5.0,73,0.00,,,0.00,Wunderground v.1.15,2013-01-04 02:57:00,
2013-01-03 22:02:00,17.5,10.6,30.03,NW,324,0.0,5.0,74,0.00,,,0.00,Wunderground v.1.15,2013-01-04 03:02:00,
2013-01-03 22:08:00,17.6,9.5,30.02,NW,324,0.0,5.0,70,0.00,,,0.00,Wunderground v.1.15,2013-01-04 03:08:00,
2013-01-03 22:14:00,17.8,10.0,30.02,NW,324,0.0,5.0,71,0.00,,,0.00,Wunderground v.1.15,2013-01-04 03:14:00,
2013-01-03 22:20:00,17.7,10.2,30.02,NW,324,0.0,5.0,72,0.00,,,0.00,Wunderground v.1.15,2013-01-04 03:20:00,
2013-01-03 22:26:00,17.6,10.4,30.02,NW,324,0.0,5.0,73,0.00,,,0.00,Wunderground v.1.15,2013-01-04 03:26:00,
2013-01-03 22:32:00,17.5,9.7,30.02,NW,324,0.0,5.0,71,0.00,,,0.00,Wunderground v.1.15,2013-01-04 03:32:00,
2013-01-03 22:38:00,17.5,10.6,30.02,NW,324,0.0,5.0,74,0.00,,,0.00,Wunderground v.1.15,2013-01-04 03:38:00,
2013-01-03 22:43:00,17.4,10.8,30.02,NW,324,0.0,5.0,75,0.00,,,0.00,Wunderground v.1.15,2013-01-04 03:43:00,
2013-01-03 22:49:00,17.3,11.0,30.01,NW,324,0.0,5.0,76,0.00,,,0.00,Wunderground v.1.15,2013-01-04 03:49:00,
2013-01-03 22:55:00,17.3,11.0,30.01,NW,324,0.0,5.0,76,0.00,,,0.00,Wunderground v.1.15,2013-01-04 03:55:00,
2013-01-03 23:01:00,17.5,10.9,30.00,NW,324,0.0,5.0,75,0.00,,,0.00,Wunderground v.1.15,2013-01-04 04:01:00,
2013-01-03 23:06:00,17.6,10.7,30.00,NW,324,0.0,5.0,74,0.00,,,0.00,Wunderground v.1.15,2013-01-04 04:06:00,
2013-01-03 23:12:00,17.5,11.5,30.00,NW,324,0.0,5.0,77,0.00,,,0.00,Wunderground v.1.15,2013-01-04 04:12:00,
2013-01-03 23:18:00,17.2,10.9,30.00,NW,322,0.0,5.0,76,0.00,,,0.00,Wunderground v.1.15,2013-01-04 04:18:00,
2013-01-03 23:24:00,17.3,11.3,29.99,NW,310,1.0,5.0,77,0.00,,,0.00,Wunderground v.1.15,2013-01-04 04:24:00,
2013-01-03 23:29:00,17.5,11.2,29.99,NW,310,1.0,5.0,76,0.00,,,0.00,Wunderground v.1.15,2013-01-04 04:29:00,
2013-01-03 23:35:00,17.7,11.4,29.99,NW,310,0.0,5.0,76,0.00,,,0.00,Wunderground v.1.15,2013-01-04 04:35:00,
2013-01-03 23:41:00,17.8,12.1,29.98,NW,310,0.0,5.0,78,0.00,,,0.00,Wunderground v.1.15,2013-01-04 04:41:00,
2013-01-03 23:47:00,17.6,11.9,29.98,NW,310,0.0,5.0,78,0.00,,,0.00,Wunderground v.1.15,2013-01-04 04:47:00,
2013-01-03 23:52:00,17.6,11.9,29.98,NW,310,0.0,5.0,78,0.00,,,0.00,Wunderground v.1.15,2013-01-04 04:52:00,
2013-01-03 23:58:00,17.9,12.5,29.98,NW,310,1.0,5.0,79,0.00,,,0.00,Wunderground v.1.15,2013-01-04 04:58:00,